Aérodrome :
LOGIN :

S'inscrire | Disclaimer

   EN    FR    IT 

 










Légende :    VFR   VFR Marginal   IFR   IFR Intensif   IFR Très Intensif
Visi : 
Plafond : 
>= 8 km
>= 3000ft
5 à 8 km
1000 à 3000 ft
1500m à 5 km
500 à 1000 ft
800 à 1500m
200 à 500 ft
< 800m
< 200 ft
Symboles :   Orages  Brouillard  Fortes neiges  Fortes précipitations  Vent > 20 kt
SIGMETs :   Divers  Orages  Givrage  Turbulence  Onde Orograph.  Cendres Volcan.







- Altitude de l'aérodrome : 1548 ft


LKNA - Náměšť Air Base

DERNIER METAR :
  • 151100Z 26011KT 9999 FEW020 BKN140 03/M01 Q0997 NOSIG RMK BLU BLU

METARs EXPIRÉS :
  • 151000Z 20005KT 9999 FEW004 SCT040 BKN140 01/00 Q0997 NOSIG RMK BLU BLU
  • 150900Z 19009KT 6000 FEW004 SCT040 BKN140 01/01 Q0997 NOSIG RMK WHT WHT

TAF TAF LKNA
Valide du 15 à 06h jusqu'au 16 à 06h UTC


150500Z 1506/1606 15008KT 6000 BKN020
TEMPO 1506/1509 3000 RASN BR BKN006 BKN010
PROB30 1506/1508 1200 DZSN BR BKN004
BECMG 1508/1510 26010KT 9999 BKN030
BECMG 1510/1512 CAVOK
BECMG 1518/1520 VRB02KT
Pas de NOTAMs connus pour ce terrain.



MET'MAP, la Météo Aéronautique d'un coup d'oeil ! - Copyright ORBIFLY Décembre 2007 - Disclaimer

ORBIFLY MET'MAP TEAM :

Programmation & Développement : Alexandra Zaïnal
Conception & Développement : Baudouin d'Aumeries
Co-Programmation & Développement : Marc-Olivier Méhu
Soutien technique & logistique : Manuel Goepfert

Contact : metmap@orbifly.com




SOURCES & CREDITS :

   NOAA